Location: Beuerbach
(48.1459°N, 10.9174°E)
Time: 03:10:39
(UTC+00:00)

Cosmos 1455 Rocket - Pass Details

Date: 23 May 2024
Orbit: 602 x 625 km, 82.5° (Epoch: 13 June)

Event Time Altitude Azimuth Distance (km) Brightness Sun altitude
Rises 02:37:42 0° 355° (N) 2,881 7.1 -7.4°
Reaches altitude 10° 02:40:00 10° 2° (N) 1,975 6.3 -7.1°
Maximum altitude 02:44:12 45° 75° (ENE) 845 4.3 -6.6°
Drops below altitude 10° 02:48:24 10° 149° (SSE) 1,974 5.6 -6.1°
Sets 02:50:42 0° 156° (SSE) 2,878 6.3 -5.8°
